User: anonymous   Login
Location: Young's Pond
(41.2695°N, 72.7766°W)
Time: 03:35:22
(UTC-04:00)
Language:

CZ-4B R/B - Orbit

View from above orbital plane
View from above orbital plane
View from above satellite
View from above satellite

Ground track
Ground track

The orbit data is extracted from the following two-line orbital elements,

1 29093U 06015B   16179.18901037  .00003829  00000-0  10028-3 0  9994
2 29093  97.4842 276.7146 0070104 150.6616 209.8593 15.36844445562956
Epoch (UTC): 27 June 2016 04:32:10
Eccentricity: 0.0070104
inclination: 97.4842°
perigee height: 407 km
apogee height: 503 km
right ascension of ascending node: 276.7146°
argument of perigee: 150.6616°
revolutions per day: 15.36844445
mean anomaly at epoch: 209.8593°
orbit number at epoch: 56295

The dashed part of the orbit path shows where the satellite is in the earth's shadow,  

DLR